Waarnemingen

Advertentie
Mijn weer
Zwiesel, Duitsland (10796): temperatuur & dauwpunt: 12.11.2017 03:00:00 - 18.11.2017 03:00:00 (CET)Zwiesel, Duitsland (10796): temperatuur 5cm & temperatuur -5cm: 12.11.2017 03:00:00 - 18.11.2017 03:00:00 (CET)Zwiesel, Duitsland (10796): temperatuur -20cm & temperatuur -100cm: 12.11.2017 03:00:00 - 18.11.2017 03:00:00 (CET)Zwiesel, Duitsland (10796): windsnelheid & windstoten: 12.11.2017 03:00:00 - 18.11.2017 03:00:00 (CET)Zwiesel, Duitsland (10796): windrichting: 12.11.2017 03:00:00 - 18.11.2017 03:00:00 (CET)Zwiesel, Duitsland (10796): luchtdruk: 12.11.2017 03:00:00 - 18.11.2017 03:00:00 (CET)Zwiesel, Duitsland (10796): zicht: 12.11.2017 03:00:00 - 18.11.2017 03:00:00 (CET)Zwiesel, Duitsland (10796): Zonneschijnduur: 12.11.2017 03:00:00 - 18.11.2017 03:00:00 (CET)Zwiesel, Duitsland (10796): neerslag: 12.11.2017 03:00:00 - 18.11.2017 03:00:00 (CET)
Datum & Tijd tt [°C] td [°C] tt 5cm [°C] tt -5cm [°C] tt -20cm [°C] tt -100cm [°C] ff [km/u] ff [kn] fx [km/u] fx [kn] dd ppp [hPa] vv [km] sd [min] rr [mm]
18.11.2017 03:00:00 1,0 0,6 1,1 2,5 3,0 8,1 0 0 5 3 N 1024,9 4,1 0 0,0
18.11.2017 02:00:00 1,0 0,7 1,2 2,5 3,0 8,1 4 2 6 4 O 1025,3 0,6 0 0,0
18.11.2017 01:00:00 1,0 0,8 1,2 2,5 3,0 8,1 4 2 6 3 OZO 1025,9 0,4 0 0,0
18.11.2017 00:00:00 1,2 0,6 1,2 2,6 3,0 8,1 0 0 5 3 N 1026,4 4,8 0 0,0
17.11.2017 23:00:00 1,1 0,7 1,3 2,6 3,0 8,1 4 2 5 3 ZW 1026,4 3,0 0 0,0
17.11.2017 22:00:00 1,0 0,6 1,1 2,6 3,0 8,1 3 1 6 3 OZO 1026,6 1,4 0 0,0
17.11.2017 21:00:00 1,2 0,7 1,2 2,7 3,0 8,1 0 0 3 2 N 1026,7 2,8 0 0,0
17.11.2017 20:00:00 1,2 0,7 1,3 2,7 3,0 8,1 3 2 4 2 OZO 1026,9 2,8 0 0,0
17.11.2017 19:00:00 1,1 0,7 1,2 2,8 3,0 8,1 0 0 5 3 N 1027,1 1,4 0 0,0
17.11.2017 18:00:00 1,1 0,7 1,3 2,9 3,0 8,2 4 2 6 3 ZZW 1027,4 1,7 0 0,0
17.11.2017 17:00:00 1,3 0,5 1,3 3,0 2,9 8,2 3 2 8 4 Z 1027,2 4,7 0 0,0
17.11.2017 16:00:00 1,6 0,6 1,7 3,1 2,8 8,2 4 2 10 6 ZW 1027,0 10 0 0,0
17.11.2017 15:00:00 1,8 0,3 2,0 3,2 2,8 8,2 5 3 6 3 WZW 1026,8 14 0 0,0
17.11.2017 14:00:00 1,7 0,1 2,3 3,0 2,7 8,2 3 2 11 6 WZW 1026,9 13 0 0,0
17.11.2017 13:00:00 1,6 0,3 2,3 2,7 2,6 8,2 6 3 10 6 WZW 1027,1 18 0 0,0
17.11.2017 12:00:00 1,2 0,4 2,1 2,4 2,6 8,2 8 5 12 6 WZW 1027,3 13 0 0,0
17.11.2017 11:00:00 1,1 0,5 1,6 2,2 2,6 8,2 6 3 10 6 WZW 1027,7 8 0 0,0
17.11.2017 10:00:00 0,6 0,1 1,1 2,0 2,6 8,2 7 4 10 5 WZW 1027,7 2,2 0 0,0
17.11.2017 09:00:00 0,4 -0,2 0,8 1,8 2,6 8,2 4 2 8 5 ZZW 1027,5 3,7 0 0,0
17.11.2017 08:00:00 0,2 -0,3 0,4 1,8 2,6 8,2 5 3 8 4 ZW 1027,4 3,8 0 0,0
17.11.2017 07:00:00 0,2 -0,2 0,3 1,8 2,6 8,2 4 2 7 4 ZZW 1027,0 3,0 0 0,0
17.11.2017 06:00:00 0,1 -0,3 0,2 1,8 2,7 8,2 4 2 7 4 ZZW 1026,7 2,0 0 0,0
17.11.2017 05:00:00 0,0 -0,4 0,2 1,8 2,7 8,2 4 2 9 5 ZW 1026,4 1,9 0 0,0
17.11.2017 04:00:00 0,0 -0,5 0,1 1,8 2,7 8,2 3 2 10 5 ZZW 1026,2 4,1 0 0,0
17.11.2017 03:00:00 -0,1 -0,6 0,0 1,9 2,7 8,3 6 3 10 5 ZW 1026,3 3,4 0 0,0
17.11.2017 02:00:00 -0,1 -0,5 0,0 1,9 2,8 8,3 6 3 9 5 ZZW 1026,3 2,9 0 0,0
17.11.2017 01:00:00 -0,1 -0,6 0,0 2,0 2,8 8,3 6 4 10 5 ZZW 1026,3 2,8 0 0,0
17.11.2017 00:00:00 -0,2 -0,8 0,0 2,0 2,8 8,3 7 4 11 6 ZZW 1026,3 2,3 0 0,0
16.11.2017 23:00:00 -0,1 -0,4 0,1 2,1 2,8 8,3 4 2 8 5 Z 1025,9 1,6 0 0,1
16.11.2017 22:00:00 -0,2 -0,5 0,0 2,1 2,8 8,3 4 2 8 4 ZW 1026,0 1,9 0 0,0
16.11.2017 21:00:00 -0,3 -0,8 0,0 2,2 2,8 8,3 5 3 13 7 WZW 1025,8 3,6 0 0,0
16.11.2017 20:00:00 0,0 -0,8 0,3 2,3 2,8 8,3 7 4 10 5 ZZW 1025,7 5 0 0,0
16.11.2017 19:00:00 0,4 -0,6 0,5 2,4 2,7 8,3 7 4 12 6 WZW 1025,4 4,7 0 0,0
16.11.2017 18:00:00 0,4 -0,8 0,7 2,5 2,6 8,3 4 2 9 5 ZO 1025,1 6 0 0,0
16.11.2017 17:00:00 0,4 -0,8 0,7 2,6 2,5 8,3 5 3 9 5 Z 1024,9 7 0 0,0
16.11.2017 16:00:00 0,7 -0,4 1,2 2,5 2,4 8,3 5 3 14 7 Z 1024,6 8 0 0,0
16.11.2017 15:00:00 0,8 -0,4 2,0 2,2 2,3 8,3 6 4 18 10 Z 1024,1 7 31 0,0
16.11.2017 14:00:00 1,7 -1,1 3,5 1,6 2,2 8,3 13 7 18 10 ZW 1023,8 16 60 0,0
16.11.2017 13:00:00 4,0 -0,5 4,9 1,0 2,3 8,4 8 4 13 7 ZW 1023,5 26 60 0,0
16.11.2017 12:00:00 2,6 -1,0 3,1 0,9 2,3 8,4 8 4 11 6 Z 1024,2 16 60 0,0
16.11.2017 11:00:00 0,3 -2,8 0,5 0,9 2,3 8,4 4 2 6 4 Z 1025,5 17 60 0,0
16.11.2017 10:00:00 -1,8 -3,8 -0,8 0,9 2,4 8,4 4 2 6 3 ZW 1026,2 8 60 0,0
16.11.2017 09:00:00 -3,1 -4,8 -2,9 0,9 2,4 8,4 0 0 4 2 N 1026,9 7 60 0,0
16.11.2017 08:00:00 -4,9 -5,8 -5,8 1,0 2,5 8,4 0 0 4 2 N 1027,6 2,9 4 0,0
16.11.2017 07:00:00 -4,7 -5,3 -5,5 1,0 2,5 8,4 3 2 7 4 ZW 1027,2 4,2 0 0,0
16.11.2017 06:00:00 -4,6 -5,5 -5,5 1,1 2,6 8,4 0 0 6 3 N 1027,0 3,7 0 0,0
16.11.2017 05:00:00 -4,4 -5,3 -4,6 1,1 2,6 8,4 2 1 6 3 NNO 1027,3 3,4 0 0,0
16.11.2017 04:00:00 -4,0 -4,6 -4,2 1,2 2,7 8,4 0 0 4 2 N 1027,4 0,1 0 0,0
16.11.2017 03:00:00 -3,6 -4,2 -3,6 1,3 2,8 8,4 3 2 6 4 OZO 1027,8 1,1 0 0,0
16.11.2017 02:00:00 -3,8 -4,6 -4,8 1,4 2,8 8,4 4 2 8 4 Z 1028,1 14 0 0,0
16.11.2017 01:00:00 -3,3 -4,0 -4,5 1,4 2,9 8,4 5 3 6 4 ZZO 1028,0 16 0 0,0
16.11.2017 00:00:00 -3,4 -4,0 -3,9 1,5 2,9 8,5 3 2 6 3 N 1029,1 0,3 0 0,0
15.11.2017 23:00:00 -2,6 -3,0 -2,2 1,7 3,0 8,5 4 2 5 3 OZO 1029,2 0,2 0 0,0
15.11.2017 22:00:00 -2,4 -2,9 -2,4 1,9 3,1 8,5 2 1 5 3 OZO 1029,4 0,2 0 0,0
15.11.2017 21:00:00 -2,1 -2,6 -2,0 2,2 3,1 8,5 2 1 5 3 ZO 1029,4 0,2 0 0,0
15.11.2017 20:00:00 -1,7 -1,8 -1,2 2,4 3,1 8,5 4 2 6 4 O 1029,1 0,2 0 0,0
15.11.2017 19:00:00 -1,4 -1,5 -1,1 2,7 3,1 8,5 0 0 5 3 N 1029,1 0,1 0 0,0
15.11.2017 18:00:00 -0,9 -1,1 -0,6 2,9 3,1 8,5 2 1 5 3 ZO 1028,9 0,1 0 0,0
15.11.2017 17:00:00 -0,6 -1,0 -0,2 3,2 3,0 8,5 4 2 6 3 N 1028,9 0,2 0 0,0
15.11.2017 16:00:00 -0,1 -0,8 0,7 3,5 2,9 8,5 3 2 7 4 ZW 1028,7 3,4 0 0,0
15.11.2017 15:00:00 0,1 -0,9 1,3 3,5 2,7 8,5 2 1 9 5 Z 1028,8 6 0 0,0
15.11.2017 14:00:00 -0,3 -1,3 1,7 3,2 2,6 8,5 5 3 8 5 W 1029,2 4,3 0 0,0
15.11.2017 13:00:00 -0,4 -2,1 1,4 2,6 2,5 8,5 1 1 8 4 W 1029,7 8 0 0,0
15.11.2017 12:00:00 -1,3 -2,6 0,7 1,9 2,5 8,5 3 2 8 4 WZW 1030,6 8 0 0,0
15.11.2017 11:00:00 -1,8 -3,1 0,2 1,4 2,6 8,6 4 2 8 4 WZW 1031,0 7 0 0,0
15.11.2017 10:00:00 -1,9 -2,8 -0,7 1,2 2,6 8,6 3 2 6 3 O 1031,1 8 0 0,0
15.11.2017 09:00:00 -2,5 -3,3 -1,3 1,2 2,6 8,6 4 2 8 4 ZO 1031,2 9 0 0,0
15.11.2017 08:00:00 -2,8 -3,5 -2,1 1,2 2,7 8,6 4 2 8 4 O 1031,1 9 0 0,0
15.11.2017 07:00:00 -2,9 -3,5 -2,4 1,3 2,7 8,6 5 3 9 5 ONO 1030,8 4,3 0 0,0
15.11.2017 06:00:00 -2,6 -3,2 -2,0 1,3 2,8 8,6 5 3 8 4 ZO 1030,4 1,3 0 0,0
15.11.2017 05:00:00 -2,5 -2,9 -2,0 1,3 2,8 8,6 4 2 8 4 NO 1030,4 0,4 0 0,0
15.11.2017 04:00:00 -2,4 -2,9 -1,8 1,4 2,9 8,6 5 3 7 4 O 1030,3 0,3 0 0,0
15.11.2017 03:00:00 -2,2 -2,6 -1,7 1,4 3,0 8,6 3 2 6 3 ONO 1030,2 0,2 0 0,0
15.11.2017 02:00:00 -2,0 -2,3 -1,7 1,5 3,1 8,6 2 1 9 5 Z 1030,1 0,5 0 0,0
15.11.2017 01:00:00 -1,9 -2,3 -1,6 1,6 3,1 8,6 5 3 8 4 NNO 1030,1 0,5 0 0,0
15.11.2017 00:00:00 -1,6 -2,3 -1,3 1,6 3,2 8,6 4 2 5 3 OZO 1030,3 4,3 0 0,0
14.11.2017 23:00:00 -1,3 -1,8 -1,3 1,8 3,3 8,6 2 1 9 5 NNW 1030,6 3,8 0 0,0
14.11.2017 22:00:00 -1,0 -1,8 -1,1 1,9 3,4 8,6 3 2 5 3 W 1030,5 4,9 0 0,0
14.11.2017 21:00:00 -1,0 -1,9 -1,7 2,2 3,5 8,7 2 1 6 3 ZZW 1030,1 11 0 0,0
14.11.2017 20:00:00 -0,5 -1,9 -2,9 2,6 3,5 8,7 5 3 9 5 OZO 1029,7 15 0 0,0
14.11.2017 19:00:00 0,4 -1,7 0,4 3,0 3,5 8,7 3 2 8 5 ZZW 1028,9 18 0 0,0
14.11.2017 18:00:00 0,5 -2,0 0,5 3,2 3,5 8,7 3 2 12 6 ZW 1028,5 21 0 0,0
14.11.2017 17:00:00 0,6 -2,0 0,7 3,5 3,4 8,7 9 5 12 6 WZW 1028,1 26 0 0,0
14.11.2017 16:00:00 0,9 -2,5 1,0 3,8 3,3 8,7 7 4 13 7 WZW 1027,3 34 19 0,0
14.11.2017 15:00:00 1,4 -2,2 2,0 4,0 3,1 8,7 7 4 14 8 ZW 1027,4 30 2 0,0
14.11.2017 14:00:00 1,3 -1,5 1,9 4,0 2,9 8,7 9 5 13 7 ZZW 1027,5 25 27 0,0
14.11.2017 13:00:00 1,8 -1,3 4,3 3,5 2,8 8,7 7 4 12 6 ZW 1027,4 16 38 0,0
14.11.2017 12:00:00 0,2 -1,5 1,8 2,7 2,8 8,7 5 3 8 4 Z 1028,1 9 0 0,0
14.11.2017 11:00:00 -1,0 -2,5 0,2 2,0 2,8 8,7 4 2 7 4 ZZW 1028,8 11 0 0,0
14.11.2017 10:00:00 -1,3 -2,0 -0,1 1,7 2,8 8,7 4 2 8 5 Z 1028,5 7 0 0,0
14.11.2017 09:00:00 -1,5 -2,2 -0,7 1,5 2,8 8,7 2 1 4 2 NW 1028,0 4,8 0 0,0
14.11.2017 08:00:00 -1,9 -2,4 -1,4 1,4 2,9 8,8 2 1 10 6 NW 1027,6 0,8 0 0,0
14.11.2017 07:00:00 -1,5 -1,9 -1,2 1,4 2,9 8,8 0 0 7 4 N 1026,6 1,9 0 0,0
14.11.2017 06:00:00 -1,5 -2,0 -1,1 1,4 3,0 8,8 3 2 8 4 OZO 1026,0 1,3 0 0,0
14.11.2017 05:00:00 -1,5 -1,9 -1,1 1,5 3,0 8,8 4 2 6 3 NNW 1025,6 1,0 0 0,0
14.11.2017 04:00:00 -1,3 -1,7 -1,0 1,5 3,1 8,8 5 3 13 7 OZO 1024,8 2,0 0 0,0
14.11.2017 03:00:00 -0,9 -1,4 -0,7 1,5 3,2 8,8 6 3 9 5 ZW 1024,1 2,2 0 0,0
14.11.2017 02:00:00 -0,8 -1,2 -0,6 1,6 3,3 8,8 3 2 6 4 NNO 1023,5 1,7 0 0,0
14.11.2017 01:00:00 -1,1 -1,5 -1,3 1,7 3,3 8,8 0 0 5 3 N 1023,0 0,2 0 0,0
14.11.2017 00:00:00 -0,4 -0,7 -0,8 1,8 3,4 8,8 2 1 4 2 OZO 1022,7 1,8 0 0,0
13.11.2017 23:00:00 -0,5 -0,7 -1,3 1,9 3,5 8,8 3 2 8 5 ONO 1022,4 1,6 0 0,0
13.11.2017 22:00:00 -0,4 -0,8 -1,5 2,1 3,6 8,8 3 2 5 3 NNO 1021,8 2,5 0 0,0
13.11.2017 21:00:00 -0,4 -0,9 -1,3 2,5 3,6 8,8 3 1 6 3 ZZO 1021,2 7 0 0,0
13.11.2017 20:00:00 0,7 0,0 0,0 2,9 3,7 8,8 4 2 7 4 NNW 1019,9 13 0 0,0
13.11.2017 19:00:00 0,9 0,1 0,7 3,0 3,7 8,9 5 3 11 6 WNW 1019,4 11 0 0,0
13.11.2017 18:00:00 1,1 -0,6 0,9 3,2 3,7 8,9 6 3 9 5 N 1018,4 44 0 0,0
13.11.2017 17:00:00 1,5 -0,7 1,1 3,4 3,6 8,9 6 4 13 7 NNW 1017,6 40 0 0,0
13.11.2017 16:00:00 1,5 -0,6 1,4 3,7 3,6 8,9 4 2 24 13 N 1016,3 48 0 0,0
13.11.2017 15:00:00 1,8 -1,0 1,9 3,9 3,5 8,9 11 6 18 10 NNW 1015,2 33 0 0,0
13.11.2017 14:00:00 2,6 -0,9 3,4 3,7 3,4 8,9 6 3 19 10 N 1014,1 63 12 0,0
13.11.2017 13:00:00 2,2 -0,9 3,2 3,4 3,3 8,9 6 3 13 7 WZW 1013,5 62 6 0,0
13.11.2017 12:00:00 2,1 -1,5 3,1 2,9 3,3 8,9 5 3 12 6 WZW 1013,1 67 14 0,0
13.11.2017 11:00:00 1,6 -0,1 2,1 2,3 3,3 8,9 5 3 17 9 NW 1012,9 59 0 0,2
13.11.2017 10:00:00 0,7 -0,5 0,8 2,1 3,3 8,9 4 2 7 4 ZZW 1012,6 5 0 0,0
13.11.2017 09:00:00 0,3 -0,4 0,1 1,9 3,4 8,9 3 2 7 4 ZO 1012,1 3,5 0 0,1
13.11.2017 08:00:00 0,2 -0,6 0,0 2,0 3,4 8,9 3 2 9 5 N 1011,1 15 0 0,3
13.11.2017 07:00:00 0,4 -0,8 0,1 2,1 3,5 9,0 3 2 8 5 NNW 1009,7 19 0 0,0
13.11.2017 06:00:00 0,2 -0,6 0,1 2,1 3,5 9,0 3 2 12 6 W 1008,6 11 0 0,0
13.11.2017 05:00:00 0,3 -1,0 0,1 2,2 3,6 9,0 4 2 13 7 WZW 1008,1 3,2 0 0,0
13.11.2017 04:00:00 0,3 -0,7 0,1 2,2 3,7 9,0 6 3 11 6 WNW 1007,4 24 0 0,0
13.11.2017 03:00:00 0,2 -0,7 0,0 2,2 3,8 9,0 4 2 11 6 WZW 1006,8 25 0 0,1
13.11.2017 02:00:00 0,4 -0,8 0,1 2,3 3,9 9,0 9 5 24 13 WZW 1006,4 11 0 0,0
13.11.2017 01:00:00 0,5 -0,9 0,1 2,5 4,0 9,0 13 7 29 16 W 1006,0 3,9 0 0,0
13.11.2017 00:00:00 0,7 -0,8 0,2 2,8 4,0 9,0 18 10 39 21 W 1005,3 3,8 0 0,0
12.11.2017 23:00:00 0,8 -0,5 0,4 3,1 4,1 9,0 22 12 41 22 W 1003,7 7 0 0,1
12.11.2017 22:00:00 0,8 -0,3 0,5 3,6 4,1 9,0 26 14 41 22 WZW 1001,9 5 0 0,4
12.11.2017 21:00:00 2,0 0,8 1,8 3,9 4,1 9,1 25 14 47 25 WZW 999,9 10 0 0,4
12.11.2017 20:00:00 4,5 2,9 3,9 3,8 4,1 9,1 28 15 44 24 WZW 997,5 14 0 1,1
12.11.2017 19:00:00 5,5 4,2 4,5 3,6 4,1 9,1 11 6 28 15 ZW 994,9 14 0 0,7
12.11.2017 18:00:00 2,8 2,6 3,0 3,4 4,0 9,1 4 2 12 7 W 995,4 16 0 1,3
12.11.2017 17:00:00 1,8 1,4 2,1 3,5 4,0 9,1 4 2 8 5 OZO 996,1 2,6 0 3,5
12.11.2017 16:00:00 1,2 1,0 1,5 3,6 4,2 9,1 6 3 11 6 NNW 997,9 3,0 0 3,2
12.11.2017 15:00:00 0,8 0,4 1,1 3,7 4,3 9,1 5 3 8 5 N 999,7 2,4 0 1,2
12.11.2017 14:00:00 1,5 0,3 1,3 3,9 4,3 9,1 6 3 11 6 ZO 1001,1 9 0 1,7
12.11.2017 13:00:00 2,1 0,8 2,3 4,0 4,2 9,1 5 3 13 7 Z 1002,9 10 0 1,6
12.11.2017 12:00:00 2,4 1,1 2,4 4,0 4,2 9,1 9 5 21 12 ZZO 1004,7 7 0 0,4
12.11.2017 11:00:00 3,1 1,2 3,2 3,9 4,2 9,1 9 5 14 8 Z 1006,2 32 0 0,0
12.11.2017 10:00:00 2,8 2,0 3,8 3,5 4,3 9,1 3 2 9 5 WZW 1007,3 9 0 0,0
12.11.2017 09:00:00 2,1 1,7 2,5 3,2 4,3 9,1 5 3 8 4 OZO 1008,4 11 0 0,0
12.11.2017 08:00:00 0,8 0,5 1,0 3,1 4,4 9,1 3 2 5 3 N 1009,3 1,6 0 0,0
12.11.2017 07:00:00 0,8 0,6 0,4 3,2 4,5 9,1 2 1 4 2 WNW 1009,2 0,5 0 0,0
12.11.2017 06:00:00 1,1 0,6 0,6 3,5 4,6 9,1 3 2 6 3 O 1009,6 0,6 0 0,0
12.11.2017 05:00:00 1,8 1,4 0,0 3,9 4,6 9,2 2 1 9 5 ZZO 1009,5 13 0 0,0
12.11.2017 04:00:00 2,8 2,0 1,0 4,3 4,6 9,2 2 1 10 5 N 1009,3 34 0 0,0
12.11.2017 03:00:00 3,9 3,4 3,5 4,5 4,6 9,2 4 2 6 3 O 1009,0 19 0 0,0

tt = temperatuur
td = dauwpunt
tt 5cm = temperatuur 5cm
tt -5cm = temperatuur -5cm
tt -20cm = temperatuur -20cm
tt -100cm = temperatuur -100cm
ff = windsnelheid
fx = windstoten
dd = windrichting
ppp = luchtdruk
vv = zicht
sd = Zonneschijnduur
rr = neerslag

Weerstations in de omgeving